Regional Weather Roundup
Issued by NWS

Home | Current Version | Previous Version | Text Only | Print | Product List | Glossary On
Versions: 1 2 3 4 5 6 7 8 9 10 11 12 13 14 15 16 17 18 19 20 21 22 23 24 25 26 27 28 29 30 31 32 33 34 35 36 37 38 39 40 41 42 43 44 45 46 47 48 49 50
000
ASUS43 KDMX 260907
RWRIA

WEATHER ROUNDUP FOR IOWA
NATIONAL WEATHER SERVICE DES MOINES IA
400 AM CDT SUN APR 26 2015

NOTE: "FAIR" INDICATES FEW OR NO CLOUDS BELOW 12,000 FEET WITH NO
SIGNIFICANT WEATHER AND/OR OBSTRUCTIONS TO VISIBILITY.

* - THESE STATIONS ARE NOT NWS STATIONS...THUS NOT UNDER NWS
QUALITY CONTROL.  THEY ALSO DO NOT REPORT WEATHER SUCH
AS PRECIPITATION OR FOG.

IAZ001>003-012>014-020>022-031>034-043>046-261000-
   NORTHWEST IOWA

CITY           SKY/WX    TMP DP  RH WIND       PRES   REMARKS
CARROLL *      CLOUDY    41  39  93 N5        29.97R
CHEROKEE *     MOCLDY    37  36  93 CALM      29.98R
DENISON *      PTCLDY    41  41 100 NE5       29.95R
LE MARS *      CLEAR     46  39  76 NE5       29.98S
ORANGE CITY *  CLEAR     41  37  87 CALM      29.97S
SHELDON *      CLEAR     34  34 100 CALM      29.97R
SIOUX CITY     CLEAR     46  38  73 E5        29.97R
SPENCER        PTCLDY    31  29  92 CALM      29.98R FOG
STORM LAKE *   CLEAR     39  36  87 E7        29.98R WCI  34
$$

IAZ055>058-069>071-079>083-090>094-261000-
   SOUTHWEST IOWA

CITY           SKY/WX    TMP DP  RH WIND       PRES   REMARKS
ATLANTIC *     PTCLDY    41  39  93 NE5       29.94S
AUDUBON *      CLEAR     39  36  87 CALM      29.96R
CLARINDA *     CLOUDY    45  41  87 NE9       29.94R
COUNCIL BLFS * CLEAR     43  43 100 NE8       29.94R
CRESTON *      CLEAR     39  39 100 NE10      29.93R WCI  32
HARLAN  *      CLEAR     43  43 100 NE8       29.98R
LAMONI         CLOUDY    45  39  79 NE12      29.91R
RED OAK *      CLEAR     41  39  93 NE6       29.93S
SHENANDOAH *   CLOUDY    45  43  93 NE9       29.93R
$$

IAZ047>049-059>061-072>074-084-261000-
   CENTRAL IOWA

CITY           SKY/WX    TMP DP  RH WIND       PRES   REMARKS
AMES           PTCLDY    40  36  86 N6        29.96R
ANKENY *       PTCLDY    43  37  81 NE5       29.95R
CHARITON *     CLOUDY    41  37  87 NE6       29.93R
DES MOINES     CLOUDY    48  37  65 E7        29.95R
GRINNELL*      PTCLDY    41  37  87 NE7       29.94R
KNOXVILLE *    CLOUDY    45  39  81 E7        29.93R
MARSHALLTOWN   CLEAR     38  34  85 NE6       29.95R WCI  33
PELLA *        CLOUDY    45  43  93 NE3       29.95R
PERRY *          N/A     45  39  81 N5        29.96R
$$

IAZ004>006-015-016-023>025-035-036-261000-
   NORTH CENTRAL IOWA

CITY           SKY/WX    TMP DP  RH WIND       PRES   REMARKS
ALGONA *       CLEAR     37  37 100 N8        29.99R FOG     WCI  31
CLARION *      CLEAR     34  34 100 NE8       29.98R WCI  27
ESTHERVILLE    CLEAR     33  32  96 N7        29.98R FOG     WCI  27
FORT DODGE *   PTCLDY    37  34  87 N3        29.98R
MASON CITY     CLEAR     35  32  88 NW3       30.00R
FOREST CITY *  CLEAR     32  32 100 CALM      29.99R FOG
IOWA FALLS *     N/A     39  34  81 CALM      29.97R
$$

IAZ007>011-017>019-026>030-037>042-050>054-066-261000-
   NORTHEAST IOWA

CITY           SKY/WX    TMP DP  RH WIND       PRES   REMARKS
CEDAR RAPIDS   CLEAR     40  33  76 NE8       29.93S WCI  34
CHARLES CITY * CLEAR     36  32  87 NE8       29.99R WCI  29
CLINTON *      CLEAR     34  27  75 N8        29.96R WCI  27
DECORAH *      CLEAR     37  19  48 E6        29.98R WCI  33
DUBUQUE        CLEAR     35  25  66 NE8       29.95R WCI  29
MONTICELLO *   CLEAR     37  32  81 CALM      29.95R
OELWEIN *      CLEAR     36  28  75 NE8       29.98R WCI  29
WATERLOO       CLEAR     34  30  85 NE5       29.97R WCI  30
$$

IAZ064-065-067-068-078-261000-
   EAST CENTRAL IOWA

CITY           SKY/WX    TMP DP  RH WIND       PRES   REMARKS
DAVENPORT      CLEAR     37  31  78 N5        29.93R WCI  33
IOWA CITY      CLEAR     41  35  79 NE6       29.95R
MT. PLEASANT * MOCLDY    39  36  87 NE7       29.92S WCI  34
MUSCATINE *    CLEAR     39  36  87 CALM      29.94S
QUAD CITIES    CLEAR     41  31  67 N3        29.93R
$$

IAZ062-063-075>077-085>089-095>099-261000-
   SOUTHEAST IOWA

CITY           SKY/WX    TMP DP  RH WIND       PRES   REMARKS
BURLINGTON     MOCLDY    43  32  65 NE10      29.91R
FAIRFIELD *    CLEAR     39  36  87 NE7       29.93R WCI  34
FORT MADISON * PTCLDY    43  34  70 NE7       29.92R
KEOKUK *       CLOUDY    45  36  70 NE8       29.89F
OSKALOOSA *    CLOUDY    41  37  87 NE7       29.93R
CENTERVILLE *  CLEAR     41  39  93 NE6       29.93R
OTTUMWA        MOCLDY    41  37  86 NE7       29.92R
WASHINGTON *   CLEAR     39  39 100 NE6       29.93S WCI  35
$$

ABBREVIATIONS USED IN REMARKS
   TC - TEMPERATURES IN CELSIUS
  WCI - WIND CHILL INDEX
   HX - HEAT INDEX
  VSB - VISIBILITY
$$



USA.gov is the U.S. government's official web portal to all federal, state and local government web resources and services.